Starlink 32426

operational
NORAD ID: 61681 Int'l Des: 2024-193 Owner: SPXS Country: US Constellation: starlink
LEOCIRCULAR

Über Starlink 32426

Beschreibung wird geladen...

Live-Position

3D-Globus wird geladen...

Nächste Überflüge

Höhenverlauf

Altitude vs Time

uPlot chart will show altitude changes over time

Zweizeiliger Elementsatz

1 61681U 24193W 25306.46505096 .00005581 00000-0 20050-3 0 9991
2 61681 53.1613 322.2540 0001147 72.8657 287.2469 15.30183136 57044
Epoch: 2. Nov. 2025 • Age: 13 hours

Aktueller Status

Höhe 480.1 km
Geschwindigkeit 7.63 km/s
Subsatellitenpunkt 48.50°N, 37.1°E
Startdatum 26. Okt. 2024
Alter 1 years
Typ internet

Technische Details

Klassifizierung Payload
Masse 730.00 kg
Trockenmasse 700.00 kg
Gesamtmasse 730.00 kg
Länge 0.30 m
Durchmesser 4.10 m
Spannweite 29.00 m
Form Box + pan
Hersteller SPXS
Bus-Typ Starlink V2M
Phasenstatus In Orbit
Besitzer/Staat SPXS/US

Große Konstellationen

Loading constellations...